Date,TemperatureHighF,TemperatureAvgF,TemperatureLowF,DewpointHighF,DewpointAvgF,DewpointLowF,HumidityHigh,HumidityAvg,HumidityLow,PressureMaxIn,PressureMinIn,WindSpeedMaxMPH,WindSpeedAvgMPH,GustSpeedMaxMPH,PrecipitationSumIn
2013-1-1,26,24,19,19,16,13,78,71,60,0.00,40.00,6,4,0,0.00
2013-1-2,24,19,16,15,13,9,79,74,68,0.00,40.00,7,4,0,0.00
2013-1-3,30,22,13,22,14,4,83,73,63,0.00,40.00,8,6,0,0.00
2013-1-4,27,23,15,22,17,10,85,77,62,0.00,40.00,9,8,0,0.00
2013-1-5,33,27,20,28,21,17,91,79,63,0.00,40.00,8,6,0,0.00
2013-1-6,34,32,30,29,27,23,85,80,71,0.00,40.00,10,8,0,0.00
2013-1-7,33,28,20,23,20,17,89,75,58,0.00,40.00,11,6,0,0.00
2013-1-8,37,30,24,24,22,19,85,71,60,0.00,40.00,10,6,0,0.00
2013-1-9,46,39,33,32,27,20,78,63,41,0.00,40.00,10,8,0,0.00
2013-1-10,39,33,26,30,26,23,88,74,61,0.00,40.00,8,5,0,0.09
2013-1-11,53,45,35,48,42,33,92,87,80,0.00,40.00,11,10,0,0.22
2013-1-12,56,50,42,45,42,32,85,73,61,0.00,40.00,9,7,0,0.14
2013-1-13,38,33,27,35,31,23,94,91,87,0.00,40.00,8,6,0,0.06
2013-1-14,23,21,19,17,15,14,85,78,70,0.00,40.00,7,4,0,0.00
2013-1-15,28,21,13,18,14,10,89,76,58,0.00,40.00,4,2,0,0.01
2013-1-16,33,26,19,24,17,14,87,69,43,0.00,40.00,10,5,0,0.00
2013-1-17,34,29,22,27,19,11,80,67,56,0.00,40.00,12,7,0,0.00
2013-1-18,35,28,21,21,16,11,75,61,53,0.00,40.00,13,8,0,0.00
2013-1-19,45,40,36,33,28,23,70,60,53,0.00,40.00,13,10,0,0.00
2013-1-20,41,21,15,28,12,7,79,67,52,0.00,40.00,15,9,0,0.00
2013-1-21,17,12,7,11,7,4,85,79,66,0.00,40.00,7,5,0,0.00
2013-1-22,9,6,3,3,1,-1,84,79,67,0.00,40.00,7,5,0,0.00
2013-1-23,15,9,6,12,4,0,88,77,58,0.00,40.00,8,5,0,0.00
2013-1-24,18,11,5,11,1,-4,85,67,39,0.00,40.00,7,3,0,0.00
2013-1-25,22,18,14,19,10,0,86,72,54,0.00,40.00,7,5,0,0.00
2013-1-26,26,23,20,20,16,14,90,76,63,0.00,40.00,7,4,0,0.00
2013-1-27,30,25,19,25,18,13,82,74,65,0.00,40.00,15,8,0,0.00
2013-1-28,45,39,32,44,37,29,94,93,89,0.00,40.00,11,7,0,0.04
2013-1-29,56,51,36,54,49,35,95,92,87,0.00,40.00,16,10,0,0.26
2013-1-30,53,47,29,51,44,28,93,91,85,0.00,40.00,11,6,0,0.24
2013-1-31,26,17,13,24,13,9,92,84,76,0.00,40.00,10,8,0,0.00
2013-2-1,12,9,7,9,4,-2,88,78,61,0.00,40.00,9,6,0,0.00
2013-2-2,21,16,8,17,10,2,87,78,67,0.00,40.00,6,5,0,0.00
2013-2-3,19,16,13,15,11,6,84,78,70,0.00,40.00,8,5,0,0.00
2013-2-4,22,19,17,18,16,12,89,85,78,0.00,40.00,5,4,0,0.00
2013-2-5,28,22,14,25,18,11,91,85,71,0.00,40.00,7,6,0,0.00
2013-2-6,32,26,20,22,18,16,89,73,50,0.00,40.00,6,5,0,0.12
2013-2-7,38,31,25,29,23,19,86,73,59,0.00,40.00,8,6,0,0.02
2013-2-8,32,29,25,30,24,20,94,83,68,0.00,40.00,10,7,0,0.00
2013-2-9,32,24,16,20,18,13,92,78,60,0.00,40.00,9,5,0,0.03
2013-2-10,39,33,27,36,26,19,90,75,66,0.00,40.00,12,9,0,0.01
2013-2-11,46,36,30,42,27,21,91,70,65,0.00,40.00,14,12,0,0.00
2013-2-12,29,27,26,21,20,20,77,74,68,0.00,40.00,9,6,0,0.00
2013-2-13,41,31,22,27,23,19,87,71,53,0.00,40.00,7,5,0,0.00
2013-2-14,38,34,32,30,28,24,86,77,68,0.00,40.00,11,8,0,0.00
2013-2-15,32,26,20,24,19,14,84,76,60,0.00,40.00,9,5,0,0.00
2013-2-16,21,17,10,18,11,7,90,79,67,0.00,40.00,9,5,0,0.00
2013-2-17,26,17,9,10,8,6,89,71,47,0.00,40.00,5,2,0,0.01
2013-2-18,47,32,21,40,21,10,77,63,53,0.00,40.00,14,10,0,0.08
2013-2-19,43,22,14,39,19,11,91,86,84,0.00,40.00,16,10,0,0.02
2013-2-20,21,17,14,15,13,11,87,82,74,0.00,40.00,9,6,0,0.00
2013-2-21,25,22,19,17,15,13,79,75,71,0.00,40.00,10,6,0,0.00
2013-2-22,32,26,20,30,22,14,94,87,74,0.00,40.00,13,9,0,0.01
2013-2-23,29,26,24,21,19,16,82,74,61,0.00,40.00,8,7,0,0.02
2013-2-24,33,27,23,23,20,18,82,76,65,0.00,40.00,6,4,0,0.00
2013-2-25,39,30,20,23,21,19,92,72,47,0.00,40.00,5,4,0,0.00
2013-2-26,33,31,29,30,24,20,94,76,64,0.00,40.00,18,9,0,0.07
2013-2-27,33,32,31,32,31,30,95,95,95,0.00,40.00,3,2,0,0.21
2013-2-28,35,32,30,31,29,26,95,86,76,0.00,40.00,8,5,0,0.00
2013-3-1,32,29,25,25,21,17,82,70,59,0.00,40.00,9,7,0,0.00
2013-3-2,28,24,20,17,15,12,76,67,57,0.00,40.00,8,5,0,0.00
2013-3-3,29,24,17,17,13,11,81,65,46,0.00,40.00,10,5,0,0.00
2013-3-4,32,24,15,16,14,12,88,65,43,0.00,40.00,5,3,0,0.00
2013-3-5,29,28,26,26,21,16,93,74,58,0.00,40.00,13,9,0,0.00
2013-3-6,35,30,25,27,24,21,91,78,63,0.00,40.00,11,6,0,0.09
2013-3-7,35,32,26,29,24,19,90,73,52,0.00,40.00,7,4,0,0.00
2013-3-8,40,29,21,20,19,17,90,66,41,0.00,40.00,5,3,0,0.00
2013-3-9,41,34,27,30,24,18,74,66,53,0.00,40.00,12,7,0,0.00
2013-3-10,54,48,40,40,36,30,80,62,51,0.00,40.00,13,8,0,0.12
2013-3-11,53,44,33,46,39,30,92,83,53,0.00,40.00,12,8,0,0.07
2013-3-12,33,31,29,29,25,21,92,80,59,0.00,40.00,10,8,0,0.00
2013-3-13,28,25,22,26,18,11,91,76,54,0.00,40.00,13,8,0,0.00
2013-3-14,38,27,19,21,15,11,77,60,41,0.00,40.00,7,3,0,0.03
2013-3-15,44,35,29,34,30,24,93,81,61,0.00,40.00,7,5,0,0.03
2013-3-16,36,32,27,34,28,20,94,86,69,0.00,40.00,11,7,0,0.00
2013-3-17,33,29,25,21,17,15,73,62,47,0.00,40.00,10,7,0,0.00
2013-3-18,33,29,26,31,24,17,93,84,69,0.00,40.00,13,9,0,0.03
2013-3-19,30,24,18,22,14,12,84,66,46,0.00,40.00,13,10,0,0.00
2013-3-20,28,21,16,14,12,9,88,66,56,0.00,40.00,9,8,0,0.00
2013-3-21,26,21,14,19,15,12,90,79,63,0.00,40.00,9,5,0,0.00
2013-3-22,36,27,18,20,16,14,84,65,43,0.00,40.00,8,4,0,0.02
2013-3-23,34,28,22,21,19,18,87,71,54,0.00,40.00,8,4,0,0.00
2013-3-24,36,30,24,23,21,20,83,71,54,0.00,40.00,18,10,0,0.00
2013-3-25,35,32,29,28,23,21,78,70,59,0.00,40.00,12,9,0,0.00
2013-3-26,38,33,30,27,26,24,86,75,56,0.00,40.00,10,7,0,0.00
2013-3-27,41,35,30,30,21,14,92,61,33,0.00,40.00,12,6,0,0.00
2013-3-28,47,36,27,26,20,16,79,54,31,0.00,40.00,8,4,0,0.00
2013-3-29,49,39,29,21,16,13,70,41,23,0.00,40.00,8,3,0,0.00
2013-3-30,55,42,28,30,19,-100,66,45,29,0.00,40.00,8,4,0,0.00
2013-3-31,54,47,39,39,33,27,88,59,41,0.00,40.00,14,8,0,0.03
2013-4-1,37,31,25,28,15,9,75,51,36,0.00,40.00,12,9,0,0.00
2013-4-2,37,31,24,19,12,5,82,47,25,0.00,40.00,12,6,0,0.00
2013-4-3,45,32,23,17,10,3,66,44,17,0.00,40.00,9,4,0,0.00
2013-4-4,54,40,27,17,14,12,63,38,18,0.00,40.00,7,5,0,0.00
2013-4-5,48,41,32,28,20,11,70,47,22,0.00,40.00,9,6,0,0.00
2013-4-6,61,46,31,34,25,21,71,44,28,0.00,40.00,17,11,0,0.00
2013-4-7,59,50,41,44,36,31,78,60,40,0.00,40.00,15,9,0,0.00
2013-4-8,64,47,39,52,39,31,90,73,54,0.00,40.00,15,9,0,0.08
2013-4-9,71,51,38,56,44,36,93,78,57,0.00,40.00,9,6,0,0.00
2013-4-10,50,43,39,45,40,37,93,89,82,0.00,40.00,14,10,0,0.32
2013-4-11,41,40,38,38,37,36,93,91,89,0.00,40.00,16,12,0,1.32
2013-4-12,42,38,36,36,34,30,93,85,69,0.00,40.00,10,6,0,0.15
2013-4-13,40,37,32,30,26,23,89,65,49,0.00,40.00,10,7,0,0.02
2013-4-14,58,43,33,41,32,24,82,64,50,0.00,40.00,10,6,0,0.01
2013-4-15,64,55,50,54,46,40,90,71,64,0.00,40.00,12,9,0,0.25
2013-4-16,50,45,41,42,35,26,92,71,42,0.00,40.00,8,6,0,0.32
2013-4-17,54,46,41,42,35,31,87,65,53,0.00,40.00,13,9,0,0.12
2013-4-18,70,57,45,61,53,42,92,87,73,0.00,40.00,16,10,0,0.80
2013-4-19,58,39,33,55,32,27,90,76,65,0.00,40.00,13,10,0,0.38
2013-4-20,38,33,30,30,19,10,92,57,31,0.00,40.00,11,8,0,0.01
2013-4-21,50,38,26,26,19,14,68,48,34,0.00,40.00,9,6,0,0.00
2013-4-22,63,49,34,30,27,24,75,47,22,0.00,40.00,9,6,0,0.00
2013-4-23,64,52,39,52,40,30,92,66,43,0.00,40.00,11,8,0,0.50
2013-4-24,43,38,33,37,28,19,93,72,37,0.00,40.00,11,8,0,0.07
2013-4-25,47,42,38,33,28,25,75,58,41,0.00,40.00,10,7,0,0.01
2013-4-26,62,48,35,36,30,26,73,51,33,0.00,40.00,12,8,0,0.00
2013-4-27,68,56,43,38,32,-100,70,47,24,0.00,40.00,10,5,0,0.00
2013-4-28,59,53,48,51,46,37,90,78,43,0.00,40.00,6,3,0,0.17
2013-4-29,70,56,48,52,48,46,93,77,44,0.00,40.00,9,3,0,0.00
2013-4-30,79,72,57,56,54,49,74,55,45,0.00,40.00,14,11,0,0.00
2013-5-1,83,72,61,56,51,48,68,49,30,0.00,40.00,11,6,0,0.00
2013-5-2,79,67,53,53,51,46,78,57,36,0.00,40.00,7,5,0,0.00
2013-5-3,77,60,43,54,46,39,86,62,36,0.00,40.00,11,5,0,0.00
2013-5-4,71,64,58,44,39,35,52,40,26,0.00,40.00,12,6,0,0.00
2013-5-5,72,60,51,42,38,33,61,45,26,0.00,40.00,11,6,0,0.00
2013-5-6,76,64,53,46,35,24,56,36,15,0.00,40.00,9,5,0,0.00
2013-5-7,74,64,54,47,44,42,64,49,34,0.00,40.00,7,4,0,0.00
2013-5-8,77,66,55,50,46,40,77,49,29,0.00,40.00,6,3,0,0.00
2013-5-9,78,64,54,56,46,41,84,55,26,0.00,40.00,6,2,0,0.08
2013-5-10,60,54,45,57,51,42,92,88,78,0.00,40.00,8,5,0,0.13
2013-5-11,52,44,38,45,38,-100,93,83,58,0.00,40.00,13,6,0,0.00
2013-5-12,46,39,35,33,28,24,90,64,42,0.00,40.00,11,7,0,0.00
2013-5-13,55,43,31,30,23,15,87,52,20,0.00,40.00,9,4,0,0.00
2013-5-14,79,62,48,50,37,22,50,39,33,0.00,40.00,12,7,0,0.00
2013-5-15,76,73,63,56,48,42,54,42,31,0.00,40.00,11,7,0,0.00
2013-5-16,81,57,53,44,18,-100,67,40,20,0.00,40.00,8,3,0,0.00
2013-5-17,77,63,56,45,32,-100,57,41,31,0.00,40.00,9,7,0,0.00
2013-5-18,80,66,56,55,46,38,62,48,38,0.00,40.00,7,5,0,0.00
2013-5-19,86,73,58,59,53,47,67,52,34,0.00,40.00,9,5,0,0.00
2013-5-20,86,78,68,66,61,55,82,59,36,0.00,40.00,12,8,0,0.00
2013-5-21,80,73,62,62,61,59,91,65,49,0.00,40.00,10,6,0,0.01
2013-5-22,71,67,61,63,61,58,90,82,72,0.00,40.00,7,5,0,0.32
2013-5-23,61,52,44,58,49,40,92,88,84,0.00,40.00,11,6,0,0.06
2013-5-24,55,46,35,39,35,32,91,67,41,0.00,40.00,9,5,0,0.00
2013-5-25,66,52,37,43,37,32,93,63,29,0.00,40.00,5,3,0,0.00
2013-5-26,68,57,47,40,38,35,75,51,29,0.00,40.00,8,4,0,0.00
2013-5-27,61,55,52,51,44,30,90,70,32,0.00,40.00,11,7,0,0.19
2013-5-28,77,67,54,67,60,51,92,81,64,0.00,40.00,10,7,0,0.36
2013-5-29,79,70,62,66,62,59,90,75,58,0.00,40.00,8,5,0,0.12
2013-5-30,84,76,69,65,62,59,76,63,47,0.00,40.00,12,8,0,0.00
2013-5-31,76,71,65,65,63,61,89,76,65,0.00,40.00,12,8,0,0.29
2013-6-1,73,68,64,62,58,-100,89,75,63,0.00,40.00,11,8,0,0.14
2013-6-2,63,56,45,58,49,38,91,80,61,0.00,40.00,10,7,0,0.03
2013-6-3,65,52,39,44,40,37,92,65,38,0.00,40.00,7,3,0,0.00
2013-6-4,72,58,46,46,42,37,81,57,32,0.00,40.00,7,4,0,0.00
2013-6-5,73,64,56,46,42,40,65,46,31,0.00,40.00,8,6,0,0.00
2013-6-6,68,62,56,52,48,43,75,60,47,0.00,40.00,9,6,0,0.00
2013-6-7,70,59,50,51,48,43,86,68,45,0.00,40.00,8,5,0,0.00
2013-6-8,73,62,50,51,48,43,84,62,41,0.00,40.00,5,3,0,0.00
2013-6-9,78,69,60,59,55,49,76,61,47,0.00,40.00,7,5,0,0.00
2013-6-10,72,67,63,64,62,57,91,83,58,0.00,40.00,8,4,0,0.59
2013-6-11,81,68,59,64,60,57,93,77,50,0.00,40.00,5,3,0,0.01
2013-6-12,83,73,66,71,66,60,88,77,63,0.00,40.00,8,3,0,0.17
2013-6-13,73,65,55,61,55,50,91,73,53,0.00,40.00,13,7,0,0.08
2013-6-14,76,62,52,55,52,50,92,73,42,0.00,40.00,7,4,0,0.00
2013-6-15,73,64,56,63,57,52,89,79,59,0.00,40.00,7,3,0,0.19
2013-6-16,79,70,64,64,60,50,89,72,36,0.00,40.00,8,5,0,0.36
2013-6-17,84,73,64,62,56,47,89,59,28,0.00,40.00,5,3,0,0.10
2013-6-18,72,64,59,59,55,47,91,74,49,0.00,40.00,8,5,0,0.01
2013-6-19,76,62,50,46,43,39,76,52,27,0.00,40.00,6,3,0,0.00
2013-6-20,81,66,54,54,50,47,79,59,33,0.00,40.00,4,2,0,0.00
2013-6-22,83,78,73,70,68,66,79,70,62,0.00,40.00,5,3,0,0.00
2013-6-23,86,74,65,66,63,61,87,70,45,0.00,40.00,8,4,0,0.00
2013-6-25,84,76,66,72,69,64,92,79,62,0.00,40.00,8,4,0,0.08
2013-6-26,81,71,65,67,65,62,91,82,58,0.00,40.00,7,4,0,0.59
2013-6-27,81,71,66,69,66,63,93,83,61,0.00,40.00,7,3,0,0.16
2013-6-28,76,69,63,63,61,58,92,77,53,0.00,40.00,8,4,0,0.04
2013-6-29,76,65,60,62,60,58,93,83,56,0.00,40.00,6,2,0,0.32
2013-6-30,77,67,60,60,56,52,88,71,48,0.00,40.00,9,5,0,0.00
2013-7-1,73,65,59,55,47,37,69,51,40,0.00,40.00,10,7,0,0.00
2013-7-2,64,61,56,60,55,47,92,81,59,0.00,40.00,7,5,0,0.76
2013-7-3,78,70,62,63,61,59,93,76,54,0.00,40.00,9,4,0,0.00
2013-7-4,77,70,60,62,60,57,92,73,51,0.00,40.00,4,2,0,0.00
2013-7-5,81,72,62,65,62,59,91,71,53,0.00,40.00,4,2,0,0.00
2013-7-6,80,72,67,67,65,64,90,79,62,0.00,40.00,5,2,0,0.00
2013-7-7,82,73,67,69,67,65,92,80,60,0.00,40.00,6,3,0,1.09
2013-7-8,78,73,72,69,68,65,88,82,72,0.00,40.00,6,3,0,0.01
2013-7-9,84,74,69,73,70,66,92,86,71,0.00,40.00,6,2,0,0.52
2013-7-10,81,73,63,73,61,-100,91,71,46,0.00,40.00,9,5,0,0.00
2013-7-11,76,67,57,57,53,50,88,64,40,0.00,40.00,7,3,0,0.00
2013-7-12,79,68,55,58,55,52,89,65,39,0.00,40.00,6,3,0,0.00
2013-7-13,82,71,61,62,60,55,83,68,50,0.00,40.00,5,3,0,0.00
2013-7-14,86,75,64,69,64,61,89,71,51,0.00,40.00,5,4,0,0.00
2013-7-15,88,77,70,75,70,67,90,78,59,0.00,40.00,4,2,0,0.18
2013-7-16,89,80,73,72,70,67,91,72,48,0.00,40.00,4,2,0,0.00
2013-7-17,89,80,73,73,70,68,86,71,52,0.00,40.00,5,2,0,0.00
2013-7-18,89,83,73,73,71,69,87,67,54,0.00,40.00,5,3,0,0.00
2013-7-19,90,82,76,71,70,67,83,66,48,0.00,40.00,8,5,0,0.00
2013-7-20,85,77,69,71,61,-100,86,61,40,0.00,40.00,6,3,0,0.00
2013-7-21,85,73,63,64,61,58,83,68,46,0.00,40.00,5,3,0,0.15
2013-7-22,83,72,65,66,64,62,91,77,54,0.00,40.00,7,4,0,0.43
2013-7-23,77,71,59,66,61,52,86,73,55,0.00,40.00,10,5,0,0.00
2013-7-24,72,62,49,52,48,46,89,63,42,0.00,40.00,6,4,0,0.00
2013-7-25,74,64,54,57,52,49,87,67,45,0.00,40.00,4,2,0,0.00
2013-7-26,74,66,59,60,56,52,88,71,54,0.00,40.00,6,3,0,0.01
2013-7-27,68,63,56,61,57,47,92,80,66,0.00,40.00,8,4,0,0.00
2013-7-28,63,57,53,51,48,46,83,72,60,0.00,40.00,7,4,0,0.00
2013-7-29,69,61,56,55,52,48,86,74,57,0.00,40.00,6,2,0,0.00
2013-7-30,77,64,52,59,55,50,93,74,49,0.00,40.00,4,2,0,0.00
2013-7-31,68,65,63,64,62,60,92,88,77,0.00,40.00,4,2,0,0.15
2013-8-1,76,67,61,64,56,49,93,71,40,0.00,40.00,7,3,0,0.00
2013-8-2,77,67,57,65,59,51,88,75,65,0.00,40.00,5,2,0,0.00
2013-8-3,76,68,60,64,56,48,93,67,38,0.00,40.00,7,3,0,0.00
2013-8-4,74,64,54,55,52,49,92,67,44,0.00,40.00,5,3,0,0.00
2013-8-5,72,62,49,60,53,45,91,73,57,0.00,40.00,4,2,0,0.00
2013-8-6,78,68,62,67,62,57,92,82,67,0.00,40.00,6,4,0,0.34
2013-8-7,79,71,65,70,66,63,92,85,67,0.00,40.00,6,3,0,0.06
2013-8-8,77,69,60,64,58,56,91,69,51,0.00,40.00,8,4,0,0.00
2013-8-9,78,69,58,62,57,54,88,68,43,0.00,40.00,4,2,0,0.00
2013-8-10,79,71,64,62,57,53,90,65,42,0.00,40.00,5,3,0,0.00
2013-8-11,76,66,57,60,55,52,87,69,46,0.00,40.00,4,1,0,0.00
2013-8-12,80,69,65,66,62,59,92,78,57,0.00,40.00,4,2,0,0.53
2013-8-13,66,61,54,63,52,47,92,76,50,0.00,40.00,8,5,0,0.01
2013-8-14,68,56,45,48,46,42,91,70,44,0.00,40.00,5,2,0,0.00
2013-8-15,73,56,44,53,46,-100,93,75,43,0.00,40.00,4,2,0,0.00
2013-8-16,76,59,50,56,45,-100,93,69,37,0.00,40.00,4,2,0,0.00
2013-8-17,78,66,55,57,50,-100,87,62,39,0.00,40.00,5,3,0,0.00
2013-8-18,81,68,57,59,54,52,85,65,37,0.00,40.00,5,3,0,0.00
2013-8-19,81,64,57,61,49,-100,92,70,40,0.00,40.00,4,2,0,0.00
2013-8-20,84,72,61,64,61,58,91,68,44,0.00,40.00,5,2,0,0.00
2013-8-21,86,75,66,66,62,58,87,66,40,0.00,40.00,5,3,0,0.00
2013-8-22,76,69,64,68,64,62,92,84,66,0.00,40.00,8,4,0,0.12
2013-8-23,79,70,61,64,56,48,93,67,34,0.00,40.00,6,3,0,0.00
2013-8-24,83,68,58,55,50,-100,83,59,31,0.00,40.00,6,3,0,0.00
2013-8-25,86,71,59,61,58,54,85,64,43,0.00,40.00,5,4,0,0.00
2013-8-26,85,76,68,69,62,58,71,64,53,0.00,40.00,5,4,0,0.00
2013-8-27,88,77,72,71,68,67,84,75,56,0.00,40.00,5,3,0,0.00
2013-8-28,83,77,71,69,68,67,89,74,61,0.00,40.00,6,4,0,0.00
2013-8-29,88,75,66,67,64,60,92,71,38,0.00,40.00,3,2,0,0.00
2013-8-30,90,77,66,70,66,63,91,70,44,0.00,40.00,6,4,0,0.00
2013-8-31,80,72,67,70,64,-100,92,77,60,0.00,40.00,5,2,0,0.00
2013-9-1,83,74,68,68,66,65,91,78,58,0.00,40.00,4,2,0,0.05
2013-9-2,74,68,55,67,60,51,91,75,51,0.00,40.00,8,4,0,0.00
2013-9-3,73,62,52,54,52,49,91,71,48,0.00,40.00,6,3,0,0.00
2013-9-4,78,66,55,59,53,51,92,67,40,0.00,40.00,6,3,0,0.00
2013-9-5,77,64,57,57,46,34,91,57,21,0.00,40.00,7,3,0,0.00
2013-9-6,81,65,50,58,48,43,85,59,30,0.00,40.00,5,3,0,0.00
2013-9-7,85,70,63,65,56,-100,88,63,39,0.00,40.00,6,3,0,0.02
2013-9-8,78,69,64,65,62,59,91,77,51,0.00,40.00,11,5,0,0.00
2013-9-9,90,74,62,69,61,51,80,64,46,0.00,40.00,5,4,0,0.00
2013-9-10,94,83,74,68,63,56,76,53,29,0.00,40.00,7,4,0,0.00
2013-9-11,92,81,68,69,65,62,90,60,38,0.00,40.00,7,4,0,0.42
2013-9-12,79,69,59,66,56,46,92,67,32,0.00,40.00,8,3,0,0.00
2013-9-13,63,55,48,47,42,36,81,62,36,0.00,40.00,7,5,0,0.00
2013-9-14,70,53,41,44,37,-100,93,63,26,0.00,40.00,4,2,0,0.00
2013-9-15,58,54,50,53,45,38,92,72,55,0.00,40.00,6,3,0,0.06
2013-9-16,65,56,50,52,48,43,92,75,45,0.00,40.00,6,4,0,0.00
2013-9-17,69,55,43,47,44,40,90,68,38,0.00,40.00,6,4,0,0.00
2013-9-18,69,54,53,56,47,46,80,76,62,0.00,40.00,5,4,0,0.00
2013-9-19,70,68,65,66,63,56,92,85,62,0.00,40.00,7,4,0,0.61
2013-9-20,72,70,66,68,65,59,90,84,78,0.00,40.00,7,4,0,0.00
2013-9-21,64,58,54,55,47,-100,91,71,51,0.00,40.00,8,4,0,0.00
2013-9-22,63,54,44,48,43,40,91,70,44,0.00,40.00,6,3,0,0.00
2013-9-23,66,51,40,44,42,38,92,74,43,0.00,40.00,6,4,0,0.00
2013-9-24,69,55,43,46,42,40,89,66,34,0.00,40.00,7,4,0,0.00
2013-9-25,72,56,47,52,46,43,92,70,39,0.00,40.00,7,4,0,0.00
2013-9-26,78,61,48,50,45,37,89,61,23,0.00,40.00,6,4,0,0.00
2013-9-27,78,63,50,50,45,42,75,55,30,0.00,40.00,6,4,0,0.00
2013-9-28,81,63,52,53,48,-100,91,63,30,0.00,40.00,8,5,0,0.00
2013-9-29,69,62,53,59,52,48,92,70,48,0.00,40.00,6,4,0,0.19
2013-9-30,70,55,45,53,47,43,93,79,37,0.00,40.00,5,2,0,0.00
2013-10-1,70,68,66,60,60,60,80,76,70,0.00,40.00,5,4,0,0.00
2013-10-2,81,68,62,60,52,40,92,63,26,0.00,40.00,5,2,0,0.00
2013-10-3,73,66,61,66,60,47,91,80,56,0.00,40.00,5,3,0,0.39
2013-10-4,79,70,64,67,64,61,90,80,65,0.00,40.00,5,2,0,0.00
2013-10-5,76,69,65,67,65,62,93,86,70,0.00,40.00,6,4,0,0.37
2013-10-6,66,59,51,64,55,41,93,87,69,0.00,40.00,6,3,0,0.39
2013-10-7,60,49,42,48,42,38,91,77,53,0.00,40.00,7,4,0,0.04
2013-10-8,73,55,45,47,43,40,88,68,35,0.00,40.00,6,4,0,0.00
2013-10-9,71,64,53,46,41,37,74,45,29,0.00,40.00,6,4,0,0.00
2013-10-10,74,60,47,47,44,41,85,59,32,0.00,40.00,5,3,0,0.00
2013-10-11,75,60,48,48,43,39,88,58,29,0.00,40.00,5,4,0,0.00
2013-10-12,77,61,51,61,48,-100,91,68,35,0.00,40.00,7,4,0,0.06
2013-10-13,62,54,46,59,44,37,91,69,39,0.00,40.00,7,3,0,0.01
2013-10-14,63,50,41,43,39,37,90,69,39,0.00,40.00,10,4,0,0.00
2013-10-15,62,54,45,59,49,41,92,84,73,0.00,40.00,7,5,0,0.13
2013-10-16,60,50,45,58,46,41,91,83,80,0.00,40.00,6,4,0,0.01
2013-10-17,49,48,45,45,45,43,92,89,86,0.00,40.00,7,4,0,0.39
2013-10-18,57,45,39,43,39,37,92,81,56,0.00,40.00,7,4,0,0.00
2013-10-19,52,43,41,42,34,-100,92,75,40,0.00,40.00,7,4,0,0.10
2013-10-20,59,49,40,40,38,35,86,66,42,0.00,40.00,10,6,0,0.00
2013-10-21,56,48,40,46,39,26,91,71,52,0.00,40.00,9,6,0,0.12
2013-10-22,45,38,29,31,27,24,88,65,47,0.00,40.00,6,3,0,0.00
2013-10-23,41,36,33,34,31,23,94,82,52,0.00,40.00,6,2,0,0.00
2013-10-24,37,33,32,33,32,30,94,92,85,0.00,40.00,5,2,0,0.36
2013-10-25,45,38,32,35,29,23,95,72,41,0.00,40.00,6,3,0,0.17
2013-10-26,48,43,40,35,27,-100,67,55,51,0.00,40.00,11,8,0,0.00
2013-10-27,53,44,37,34,29,24,82,59,32,0.00,40.00,7,3,0,0.00
2013-10-28,55,42,31,35,29,-100,89,67,43,0.00,40.00,9,4,0,0.00
2013-10-29,54,43,33,37,34,30,89,71,49,0.00,40.00,8,5,0,0.00
2013-10-30,60,50,40,54,43,36,92,79,61,0.00,40.00,7,5,0,0.78
2013-10-31,62,59,55,60,57,52,93,91,89,0.00,40.00,11,9,0,1.51
2013-11-1,52,46,44,49,41,36,93,83,68,0.00,40.00,10,6,0,0.08
2013-11-2,46,42,40,42,38,-100,93,87,75,0.00,40.00,6,3,0,0.08
2013-11-3,47,42,35,34,33,32,90,70,57,0.00,40.00,6,4,0,0.00
2013-11-4,51,44,37,38,33,31,84,68,51,0.00,40.00,12,8,0,0.00
2013-11-5,53,50,48,46,42,39,77,72,68,0.00,40.00,9,6,0,0.00
2013-11-6,55,50,40,52,44,37,92,83,58,0.00,40.00,11,9,0,0.42
2013-11-7,44,38,34,37,30,25,90,72,46,0.00,40.00,8,5,0,0.00
2013-11-8,46,38,30,32,28,24,92,70,42,0.00,40.00,6,3,0,0.00
2013-11-9,55,48,42,38,31,-100,67,54,47,0.00,40.00,12,10,0,0.00
2013-11-10,45,41,37,31,28,23,72,58,47,0.00,40.00,12,8,0,0.00
2013-11-11,43,38,28,35,30,24,93,73,60,0.00,40.00,10,7,0,0.04
2013-11-12,31,27,23,22,19,16,82,73,60,0.00,40.00,7,4,0,0.02
2013-11-13,30,23,20,18,17,16,86,78,55,0.00,40.00,8,4,0,0.00
2013-11-14,50,44,34,20,19,16,49,36,30,0.00,40.00,10,8,0,0.00
2013-11-15,48,43,40,29,23,19,53,45,38,0.00,40.00,10,7,0,0.00
2013-11-16,54,48,40,48,40,29,87,76,59,0.00,40.00,13,9,0,0.00
2013-11-17,61,57,46,58,53,39,90,86,76,0.00,40.00,16,12,0,0.01
2013-11-18,45,40,36,35,32,28,74,71,70,0.00,40.00,12,9,0,0.00
2013-11-19,41,38,35,23,22,21,57,52,45,0.00,40.00,4,3,0,0.00
2013-11-20,43,34,27,29,24,22,78,66,45,0.00,40.00,10,6,0,0.02
2013-11-21,47,43,38,43,38,33,93,81,72,0.00,40.00,8,6,0,0.05
2013-11-22,45,39,30,43,35,27,93,85,66,0.00,40.00,9,5,0,0.01
2013-11-23,28,24,16,25,19,13,92,81,55,0.00,40.00,13,6,0,0.00
2013-11-24,23,18,14,15,11,2,90,74,50,0.00,40.00,7,3,0,0.01
2013-11-25,29,23,17,24,12,3,86,62,52,0.00,40.00,9,7,0,0.00
2013-11-26,32,29,27,25,23,22,84,79,70,0.00,40.00,9,6,0,0.00
2013-11-27,28,23,20,22,18,15,90,80,57,0.00,40.00,8,6,0,0.00
2013-11-28,26,24,21,20,15,12,89,71,58,0.00,40.00,8,4,0,0.00
2013-11-29,34,29,25,20,19,18,80,67,51,0.00,40.00,6,2,0,0.07
2013-11-30,45,35,29,28,24,20,75,64,50,0.00,40.00,8,7,0,0.00
2013-12-1,42,37,33,31,27,25,81,66,54,0.00,40.00,6,4,0,0.00
2013-12-2,38,32,28,29,26,25,90,78,59,0.00,40.00,6,4,0,0.00
2013-12-3,45,37,32,43,35,28,93,90,81,0.00,40.00,8,7,0,0.04
2013-12-4,57,48,44,53,46,42,93,91,88,0.00,40.00,10,7,0,0.00
2013-12-5,57,36,27,52,29,18,83,74,63,0.00,40.00,9,7,0,0.00
2013-12-6,27,25,22,18,16,12,72,70,65,0.00,40.00,7,6,0,0.00
2013-12-7,22,19,15,13,11,9,82,70,61,0.00,40.00,7,5,0,0.00
2013-12-8,23,18,13,21,13,9,91,79,67,0.00,40.00,11,7,0,0.00
2013-12-9,25,22,18,23,18,9,92,83,67,0.00,40.00,10,7,0,0.00
2013-12-10,20,12,2,12,4,-5,80,70,58,0.00,40.00,13,7,0,0.00
2013-12-11,20,17,15,17,13,10,88,82,71,0.00,40.00,9,6,0,0.00
2013-12-12,15,12,6,7,0,-7,69,57,47,0.00,40.00,10,7,0,0.00
2013-12-13,28,20,15,19,13,9,79,73,66,0.00,40.00,7,4,0,0.05
2013-12-14,25,21,19,21,18,16,90,88,86,0.00,40.00,13,10,0,0.00
2013-12-15,24,19,14,21,15,9,89,84,78,0.00,40.00,8,6,0,0.00
2013-12-16,19,14,7,14,8,4,89,79,62,0.00,40.00,5,4,0,0.00
2013-12-17,27,21,16,23,18,13,92,88,83,0.00,40.00,7,5,0,0.00
2013-12-18,27,25,22,21,16,11,81,70,51,0.00,40.00,11,7,0,0.00
2013-12-19,42,36,29,34,29,16,83,74,58,0.00,40.00,9,6,0,0.04
2013-12-20,41,37,33,40,36,32,95,94,93,0.00,40.00,5,3,0,0.07
2013-12-21,33,33,32,32,32,31,96,96,96,0.00,40.00,12,4,0,0.14
2013-12-22,33,32,31,31,30,30,95,94,92,0.00,40.00,9,4,0,0.04
2013-12-23,30,24,14,28,19,9,94,83,67,0.00,40.00,8,6,0,0.00
2013-12-24,17,9,3,10,4,-2,84,78,71,0.00,40.00,7,6,0,0.01
2013-12-25,24,19,12,21,14,9,90,80,73,0.00,40.00,11,7,0,0.00
2013-12-26,27,24,23,23,19,14,92,81,66,0.00,40.00,7,6,0,0.00
2013-12-27,40,34,29,29,26,23,86,74,60,0.00,40.00,8,5,0,0.04
2013-12-28,47,40,33,32,30,28,81,68,55,0.00,40.00,11,7,0,0.00
2013-12-29,38,32,23,30,25,20,88,76,60,0.00,40.00,12,7,0,0.00
2013-12-30,20,17,14,16,10,8,83,74,65,0.00,40.00,7,5,0,0.00
2013-12-31,14,13,12,10,8,4,87,82,64,0.00,40.00,8,6,0,0.00
2014-1-1,14,13,11,11,10,7,88,86,84,0.00,40.00,11,7,0,0.00
2014-1-2,13,11,5,8,4,-5,85,74,55,0.00,40.00,13,10,0,0.00